Regional Weather Roundup
Issued by NWS

Home | Current Version | Previous Version | Graphics & Text | Print | Product List | Glossary On
Versions: 1 2 3 4 5 6 7 8 9 10 11 12 13 14 15 16 17 18 19 20 21 22 23 24 25 26 27 28 29 30 31 32 33 34 35 36 37 38 39 40 41 42 43 44 45 46 47 48 49 50
000
ASUS43 KFSD 030310
RWRSD

WEATHER ROUNDUP FOR SOUTH DAKOTA
NATIONAL WEATHER SERVICE SIOUX FALLS SD
900 PM CST FRI DEC 02 2016

NOTE: "FAIR" INDICATES FEW OR NO CLOUDS BELOW 12,000 FEET WITH NO
SIGNIFICANT WEATHER AND/OR OBSTRUCTIONS TO VISIBILITY.


SDZ001>005-009-010-012>017-030400-
NORTHWEST AND NORTH CENTRAL SOUTH DAKOTA

CITY           SKY/WX    TMP DP  RH WIND       PRES   REMARKS
BUFFALO          N/A     24  22  91 S5        30.05F WCI  18
FAITH            N/A     22  22 100 S14       30.17F WCI   9
MOBRIDGE       CLOUDY    27  23  85 SE6       30.20F WCI  20
$$

SDZ012>016-024>037-041>051-057-063-072>074-030400-
SOUTHWEST AND SOUTH CENTRAL SOUTH DAKOTA

CITY           SKY/WX    TMP DP  RH WIND       PRES   REMARKS
RAPID CTY ARPT CLEAR     23  20  88 S6        30.17F WCI  16
PIERRE         CLEAR     22  20  92 S5        30.25S FOG     WCI  16
CUSTER         CLEAR     23  16  74 S5        30.11F WCI  17
ELLSWORTH AFB  CLEAR     29  24  84 S6        30.16F WCI  22
PHILIP         CLEAR     18  16  92 NW6       30.22F FOG     WCI  10
PINE RIDGE     PTCLDY    22  20  92 CALM      30.18F
SPEARFISH      FAIR      27  16  63 CALM      30.13F
WINNER         FAIR      26  22  84 S3        30.25F
$$

SDZ004>011-016>023-039-040-030400-
NORTHEAST SOUTH DAKOTA

CITY           SKY/WX    TMP DP  RH WIND       PRES   REMARKS
ABERDEEN       CLOUDY    25  18  74 CALM      30.29F
WATERTOWN      CLOUDY    25  18  74 NW7       30.26S WCI  17
BROOKINGS      FLURRIES  26  21  81 N6        30.28S WCI  19
SISSETON         N/A     26  19  74 N6        30.30S WCI  19
$$

SDZ017-020-022-023-036>040-048>070-030400-
SOUTHEAST SOUTH DAKOTA

CITY           SKY/WX    TMP DP  RH WIND       PRES   REMARKS
SIOUX FALLS    CLOUDY    30  24  78 W3        30.30S
HURON          CLOUDY    28  26  92 S3        30.30R
CHAMBERLAIN    CLEAR     26  26  99 SE5       30.28S WCI  20
MITCHELL       CLOUDY    31  26  82 S3        30.31F
YANKTON        PTCLDY    28  25  86 CALM      30.30F
$$

ABBREVIATIONS USED IN REMARKS
   TC - TEMPERATURE IN CELSIUS
  WCI - WIND CHILL INDEX
   HX - HEAT INDEX
  VSB - VISIBILITY




USA.gov is the U.S. government's official web portal to all federal, state and local government web resources and services.